Weather in Lvovskiy

Russia / Moscow Oblast     55°18′47″N   37°31′22″E
В апреле 2022 года жителям России запретили посещать сайт meteo.paraplan.net по решению Генеральной прокуратуры. Аудитория сайта уменьшилась в 10 раз. Владельцы сайта не видят смысла в поддержке погодного сервера в таких условиях. Сайт будет закрыт в октябре.
temp.,
°C
wind,
m/s
gust,
m/s
humid.,
%
clouds,
%
prec.,
mm/h
press.,
hPa
HPBL,
m
30 september, fri
fri3000:00+7s3695100 0.0 1014102
03:00+7s389596 0.0 1015143
06:00+7sse3895100 0.0 1015171
09:00+11s41084100 0.0 1015319
12:00+15s5875100 0.0 1015647
15:00+16s577962 0.1 1015750
18:00+12s379868 0.0 1016262
21:00+12s369679 0.0 1016193
1 october, sat
sat100:00+12ssw2398100 0.0 101671
03:00+12wnw1198100 0.0 101715
06:00+12ese1198100 0.1 101622
09:00+13se1295100 0.1 1015101
12:00+14sse2387100 0.0 1014318
15:00+17se347698 0.0 1012619
18:00+14se3694100 0.9 1009132
21:00+14ssw4119298 2.7 1007463
2 october, sun
sun200:00+12sw5129298 0.0 1007692
03:00+9sw71279100 0.1 10071082
06:00+9sw61188100 0.0 1007937
09:00+9sw6108599 0.1 1008955
12:00+12wsw5768100 0.0 10081039
15:00+11w3466100 0.0 1008932
18:00+10nnw227799 0.0 100847
21:00+7ne3691100 0.0 1006140
3 october, mon
mon300:00+8ene41090100 1.7 1004499
03:00+8ne61297100 7.6 999482
06:00+13se51396100 6.7 996768
09:00+14se61497100 10.6 994919
12:00+14se61495100 4.3 993982
15:00+10ssw4995100 7.3 995604
18:00+7sw61092100 0.1 999894
21:00+7ssw5992100 0.1 10021168
4 october, tue
tue400:00+6ssw5992100 0.9 10041108
03:00+6ssw5993100 2.6 10061093
06:00+7ssw51087100 0.0 1008858
09:00+7s512889 0.0 1010543
12:00+11ssw697646 0.1 10111142
15:00+12ssw597497 0.4 10121089
18:00+9s4108869 0.6 1014497
21:00+9s5118815 0.8 1015666